Printer-friendly version

IAU Minor Planet Center

Minor Planet Center

MPEC 2001-V47: 2001 VH5

The following Minor Planet Electronic Circular may be linked-to from your own Web pages, but must not otherwise be redistributed electronically.


Read MPEC 2001-V46 Read MPEC 2001-V48


M.P.E.C. 2001-V47                                Issued 2001 Nov. 13, 18:47 UT

     The Minor Planet Electronic Circulars contain information on unusual
         minor planets and routine data on comets.  They are published
   on behalf of Commission 20 of the International Astronomical Union by the
          Minor Planet Center, Smithsonian Astrophysical Observatory,
                          Cambridge, MA 02138, U.S.A.

             Prepared using the Tamkin Foundation Computer Network

                              MPC@CFA.HARVARD.EDU
          URL http://cfa-www.harvard.edu/iau/mpc.html  ISSN 1523-6714

                                   2001 VH5

Observations:
     K01V05H* C2001 11 11.33509 01 57 51.91 +25 22 49.0          17.8        644
     K01V05H  C2001 11 11.35647 01 57 55.29 +25 18 17.6          18.0        644
     K01V05H  C2001 11 11.37748 01 57 58.68 +25 13 51.2          18.0        644
     K01V05H  C2001 11 11.80025 01 59 18.44 +23 45 12.9                      557
     K01V05H  C2001 11 11.80072 01 59 18.49 +23 45 07.7                      557
     K01V05H  C2001 11 11.80118 01 59 18.57 +23 45 01.4                      557
     K01V05H  C2001 11 11.80164 01 59 18.66 +23 44 55.8                      557
     K01V05H  C2001 11 11.80211 01 59 18.71 +23 44 50.2          17.9 V      557
     K01V05H  C2001 11 11.80215 01 59 18.78 +23 44 50.7          17.5 R      046
     K01V05H  C2001 11 11.80369 01 59 19.04 +23 44 31.3                      046
     K01V05H  C2001 11 11.80422 01 59 19.14 +23 44 24.0                      046
     K01V05H  C2001 11 11.80539 01 59 19.32 +23 44 10.2                      046
     K01V05H  C2001 11 11.92814 01 59 38.83 +23 18 44.6          18.0 V      611
     K01V05H  C2001 11 11.93096 01 59 39.17 +23 18 10.7                      611
     K01V05H  C2001 11 11.93236 01 59 39.40 +23 17 53.1                      611
     K01V05H  C2001 11 11.93389 01 59 39.53 +23 17 35.2                      611
     K01V05H  C2001 11 11.93513 01 59 39.82 +23 17 19.0                      611
     K01V05H  C2001 11 12.13924 02 00 17.15 +22 35 17.5          17.8 R      918
     K01V05H  C2001 11 12.14036 02 00 17.30 +22 35 04.3          18.1 R      918
     K01V05H  C2001 11 12.14266 02 00 17.60 +22 34 36.0          18.1 R      918
     K01V05H  C2001 11 12.22061 02 00 29.70 +22 18 50.9          17.2        704
     K01V05H  C2001 11 12.23498 02 00 31.79 +22 15 54.7          17.5        704
     K01V05H  C2001 11 12.24935 02 00 33.88 +22 12 58.0          17.3        704
     K01V05H  C2001 11 12.26372 02 00 35.97 +22 10 01.1          17.4        704
     K01V05H  C2001 11 12.27808 02 00 38.07 +22 07 04.3          17.3        704
     K01V05H  C2001 11 13.37662 02 03 38.89 +18 27 17.8          20.1        608
     K01V05H  C2001 11 13.38805 02 03 40.38 +18 25 03.1          18.6        608
     K01V05H  C2001 11 13.39868 02 03 41.77 +18 22 57.8          19.0        608

Observer details:
046 Klet.  Observers J. Ticha, M. Tichy, P. Jelinek.  0.57-m f/5.2
    reflector + CCD.
557 Ondrejov.  Observers P. Pravec, P. Kusnirak.  0.65-m f/3.6 reflector + CCD.
608 Haleakala-NEAT/MSSS.  Observers E. F. Helin, S. Pravdo, K. Lawrence,
    P. Kervin, R. Maeda, J. Africano, M. Hicks.  1.2-m reflector + CCD.
611 Starkenburg.  Observer R. Stoss.  0.45-m f/4.4 reflector + CCD.
644 Palomar Mountain/NEAT.  Observers E. F. Helin, S. Pravdo, K. Lawrence,
    M. Hicks, E. Hovland, T. Bickler, J. Schroeder, L. Scherr, R. Thicksten,
    A. Deetz.  1.2-m Schmidt + CCD.
704 Lincoln Laboratory ETS, New Mexico.  Observers M. Blythe, F. Shelly,
    M. Bezpalko, R. Huber, L. Manguso, S. Adams, J. Piscitelli.  Measurers
    J. Stuart, R. Sayer, J. B. Evans, H. Viggh.  1.0-m f/2.15 reflector + CCD.
918 Badlands Observatory, Quinn.  Observer R. Dyvig.  0.66-m f/4.8 reflector
    + CCD.

Orbital elements:
2001 VH5
Epoch 2001 Nov. 7.0 TT = JDT 2452220.5                  MPC
M  38.40932              (2000.0)            P               Q
n   0.69106739     Peri.  118.79794     +0.91283343     +0.22407647
a   1.2670365      Node   230.49870     -0.27184049     +0.95728304
e   0.1831524      Incl.   26.25687     +0.30469310     +0.18275372
P   1.43           H   21.0           G   0.15
From 28 observations 2001 Nov. 11-13.

Ephemeris:
2001 VH5                 a,e,i = 1.27, 0.18, 26                  q = 1.0350
Date    TT    R. A. (2000) Decl.     Delta      r     Elong.  Phase     V
2001 11 07    01 42.35   +41 00.1    0.129    1.106   151.4    25.4    17.9
2001 11 17    02 12.22   +07 40.5    0.151    1.130   158.2    19.0    18.1
2001 11 27    02 29.61   -11 12.3    0.213    1.156   139.2    33.9    19.4
2001 12 07    02 42.94   -19 37.4    0.292    1.184   127.0    41.7    20.3
2001 12 17    02 55.20   -23 06.4    0.377    1.212   118.9    45.3    21.0
2001 12 27    03 07.80   -24 07.7    0.464    1.240   113.0    46.9    21.6
2002 01 06    03 21.26   -23 48.5    0.551    1.269   108.2    47.4    22.0

Timothy B. Spahr             (C) Copyright 2001 MPC           M.P.E.C. 2001-V47

Read MPEC 2001-V46 Read MPEC 2001-V48


Our Web policy. Index to the CBAT/MPC/ICQ pages.


Valid HTML 4.01!